Flag for U.S.A. Weather past 2 weeks in Prescott, Arizona, U.S.A.

Now
71 °F

Clear.


Feels Like: 77 °F
Forecast: 62 / 87 °F
Wind: 7 mph from Southwest

Location: Love Field

Current Time: Sep 1, 2014 at 9:33:26 PM

Latest Report: Sep 1, 2014 at 8:53 PM


Visibility: 10 mi

Pressure: 29.84 "Hg

Humidity: 34%

Dew point: 41 °F

Location of PrescottLocation

Historic Weather in Prescott — Graph

°F

Prescott temperature yesterday

Maximum temperature yesterday: 86 °F (at 1:53 PM)
Minimum temperature yesterday: 60 °F (at 5:53 AM)
Average temperature yesterday: 73 °F

Past Weeks' High & Low Weather Summary

 TemperatureHumidityPressure
High87 °F (Aug 30, 12:53 PM)93% (Aug 19, 4:53 AM)30.28 "Hg (Aug 19, 4:53 AM)
Low54 °F (Aug 20, 3:53 AM)18% (Aug 31, 1:53 PM)29.78 "Hg (Aug 31, 4:53 PM)
Average69 °F56%29.91 "Hg
* Reported Aug 17 7:53 PM — Sep 1 7:53 PM, Prescott, Weather by CustomWeather, © 2014

Note: Actual official high and low records may vary slightly from our data, if they occured in-between our weather recording intervals... More about our weather records

Advertising

Prescott weather history for previous 24 hours

 ConditionsComfort  
Time TempWeatherWind HumidityBarometerVisibility
7:53 PM
Sep 1
75 °FClear.5 mph31%29.83 "Hg10 mi
6:53 PM79 °FSunny.5 mph27%29.83 "Hg10 mi
5:53 PM85 °FSunny.7 mph20%29.82 "Hg10 mi
4:53 PM86 °FSunny.5 mph20%29.80 "Hg10 mi
3:53 PM86 °FSunny.7 mph20%29.81 "Hg10 mi
2:53 PM86 °FSunny.8 mph24%29.81 "Hg10 mi
1:53 PM86 °FSunny.6 mph23%29.82 "Hg10 mi
12:53 PM85 °FSunny.No wind23%29.84 "Hg10 mi
11:53 AM83 °FSunny.7 mph26%29.86 "Hg10 mi
10:53 AM82 °FSunny.7 mph27%29.87 "Hg10 mi
9:53 AM80 °FSunny.6 mph29%29.88 "Hg10 mi
8:53 AM77 °FSunny.7 mph31%29.88 "Hg10 mi
7:53 AM70 °FSunny.No wind47%29.88 "Hg10 mi
6:53 AM62 °FSunny.No wind58%29.88 "Hg10 mi
5:53 AM58 °FClear.5 mph62%29.87 "Hg10 mi
4:53 AM61 °FClear.5 mph54%29.84 "Hg10 mi
3:53 AM62 °FClear.7 mph52%29.83 "Hg10 mi
2:53 AM66 °FClear.7 mph45%29.81 "Hg10 mi
1:53 AM67 °FClear.7 mph42%29.81 "Hg10 mi
12:53 AM68 °FClear.7 mph40%29.83 "Hg10 mi
11:53 PM
Aug 31
66 °FClear.6 mph49%29.83 "Hg10 mi
10:53 PM68 °FClear.6 mph42%29.82 "Hg10 mi
9:53 PM68 °FClear.6 mph45%29.82 "Hg10 mi
Weather by CustomWeather, © 2014

See weather overviewHow to use our weather pages